Private Wetterstation Sandau
Wetterdaten: Donnerstag, 19.07.2012
Datum Zeit Temp. A. Feuchte A. Luftdruck Regen Wind Richtung Richtung Taupunkt Windchill
19.07.2012 00:01 16,5 C 89 % 1007,5 hPa 0,0 l/m 3,2 km/h (1 Bft) S 180 14,7 C 16,5 C
19.07.2012 00:06 16,4 C 89 % 1007,4 hPa 0,0 l/m 3,2 km/h (1 Bft) S 180 14,6 C 16,4 C
19.07.2012 00:11 16,4 C 89 % 1007,5 hPa 0,0 l/m 2,9 km/h (1 Bft) SW 225 14,6 C 16,4 C
19.07.2012 00:16 16,4 C 89 % 1007,5 hPa 0,0 l/m 4,7 km/h (1 Bft) SW 225 14,6 C 16,4 C
19.07.2012 00:21 16,4 C 90 % 1007,5 hPa 0,0 l/m 8,3 km/h (2 Bft) W-SW 247 14,8 C 16,4 C
19.07.2012 00:26 16,4 C 90 % 1007,3 hPa 0,0 l/m 3,6 km/h (1 Bft) SW 225 14,8 C 16,4 C
19.07.2012 00:31 16,4 C 90 % 1007,4 hPa 0,0 l/m 6,8 km/h (2 Bft) W-SW 247 14,8 C 16,4 C
19.07.2012 00:36 16,3 C 90 % 1007,3 hPa 0,0 l/m 6,5 km/h (2 Bft) W-SW 247 14,7 C 16,3 C
19.07.2012 00:41 16,3 C 90 % 1007,4 hPa 0,0 l/m 1,8 km/h (1 Bft) SW 225 14,7 C 16,3 C
19.07.2012 00:46 16,2 C 90 % 1007,1 hPa 0,0 l/m 4,0 km/h (1 Bft) W-SW 247 14,6 C 16,2 C
19.07.2012 00:51 16,1 C 90 % 1007,2 hPa 0,0 l/m 1,8 km/h (1 Bft) W-SW 247 14,5 C 16,1 C
19.07.2012 00:56 15,9 C 90 % 1007,3 hPa 0,0 l/m 0,0 km/h (0 Bft) W 270 14,3 C 15,9 C
19.07.2012 01:01 15,8 C 90 % 1007,4 hPa 0,0 l/m 4,0 km/h (1 Bft) W 270 14,2 C 15,8 C
19.07.2012 01:06 15,8 C 90 % 1007,5 hPa 0,0 l/m 0,0 km/h (0 Bft) W-NW 292 14,2 C 15,8 C
19.07.2012 01:11 15,8 C 90 % 1007,4 hPa 0,0 l/m 3,2 km/h (1 Bft) W-SW 247 14,2 C 15,8 C
19.07.2012 01:16 15,9 C 91 % 1007,4 hPa 0,0 l/m 4,0 km/h (1 Bft) NW 315 14,4 C 15,9 C
19.07.2012 01:21 15,9 C 91 % 1007,3 hPa 0,0 l/m 4,0 km/h (1 Bft) NW 315 14,4 C 15,9 C
19.07.2012 01:26 15,8 C 91 % 1007,4 hPa 0,0 l/m 1,4 km/h (1 Bft) W 270 14,3 C 15,8 C
19.07.2012 01:31 15,8 C 91 % 1007,3 hPa 0,0 l/m 0,0 km/h (0 Bft) W-NW 292 14,3 C 15,8 C
19.07.2012 01:36 15,8 C 91 % 1007,4 hPa 0,0 l/m 0,0 km/h (0 Bft) W-NW 292 14,3 C 15,8 C
19.07.2012 01:41 15,7 C 91 % 1007,4 hPa 0,0 l/m 4,0 km/h (1 Bft) W-NW 292 14,2 C 15,7 C
19.07.2012 01:46 15,6 C 91 % 1007,3 hPa 0,0 l/m 0,0 km/h (0 Bft) W-NW 292 14,1 C 15,6 C
19.07.2012 01:51 15,6 C 91 % 1007,3 hPa 0,0 l/m 5,4 km/h (1 Bft) W-NW 292 14,1 C 15,6 C
19.07.2012 01:56 15,6 C 91 % 1007,4 hPa 0,0 l/m 3,2 km/h (1 Bft) W-NW 292 14,1 C 15,6 C
19.07.2012 02:01 15,5 C 91 % 1007,2 hPa 0,0 l/m 1,1 km/h (1 Bft) W-NW 292 14,0 C 15,5 C
19.07.2012 02:06 15,4 C 91 % 1007,2 hPa 0,0 l/m 0,0 km/h (0 Bft) W 270 13,9 C 15,4 C
19.07.2012 02:11 15,4 C 91 % 1007,2 hPa 0,0 l/m 0,0 km/h (0 Bft) W 270 13,9 C 15,4 C
19.07.2012 02:16 15,3 C 91 % 1007,3 hPa 0,0 l/m 1,4 km/h (1 Bft) W 270 13,8 C 15,3 C
19.07.2012 02:21 15,3 C 91 % 1007,0 hPa 0,0 l/m 0,0 km/h (0 Bft) W-NW 292 13,8 C 15,3 C
19.07.2012 02:26 15,1 C 91 % 1007,0 hPa 0,0 l/m 5,8 km/h (2 Bft) W 270 13,6 C 15,1 C
19.07.2012 02:31 14,9 C 91 % 1007,0 hPa 0,0 l/m 0,0 km/h (0 Bft) W 270 13,4 C 14,9 C
19.07.2012 02:36 14,9 C 91 % 1006,9 hPa 0,0 l/m 3,2 km/h (1 Bft) W 270 13,4 C 14,9 C
19.07.2012 02:41 14,9 C 91 % 1006,9 hPa 0,0 l/m 4,0 km/h (1 Bft) W 270 13,4 C 14,9 C
19.07.2012 02:46 14,9 C 91 % 1006,9 hPa 0,0 l/m 5,4 km/h (1 Bft) W 270 13,4 C 14,9 C
19.07.2012 02:51 14,9 C 91 % 1006,9 hPa 0,0 l/m 2,2 km/h (1 Bft) W 270 13,4 C 14,9 C
19.07.2012 02:56 14,9 C 91 % 1006,9 hPa 0,0 l/m 0,0 km/h (0 Bft) SW 225 13,4 C 14,9 C
19.07.2012 03:01 14,9 C 91 % 1006,9 hPa 0,0 l/m 4,3 km/h (1 Bft) SW 225 13,4 C 14,9 C
19.07.2012 03:06 14,8 C 91 % 1006,8 hPa 0,0 l/m 0,0 km/h (0 Bft) SW 225 13,3 C 14,8 C
19.07.2012 03:11 14,8 C 91 % 1006,8 hPa 0,0 l/m 0,0 km/h (0 Bft) SW 225 13,3 C 14,8 C
19.07.2012 03:16 14,7 C 91 % 1006,8 hPa 0,0 l/m 3,2 km/h (1 Bft) W-SW 247 13,2 C 14,7 C
19.07.2012 03:21 14,7 C 91 % 1006,6 hPa 0,0 l/m 2,9 km/h (1 Bft) W 270 13,2 C 14,7 C
19.07.2012 03:26 14,7 C 91 % 1006,6 hPa 0,0 l/m 3,6 km/h (1 Bft) W-SW 247 13,2 C 14,7 C
19.07.2012 03:31 14,7 C 91 % 1006,5 hPa 0,0 l/m 0,0 km/h (0 Bft) W-SW 247 13,2 C 14,7 C
19.07.2012 03:36 14,6 C 91 % 1006,6 hPa 0,0 l/m 0,0 km/h (0 Bft) W-SW 247 13,1 C 14,6 C
19.07.2012 03:41 14,6 C 91 % 1006,5 hPa 0,0 l/m 2,5 km/h (1 Bft) W-SW 247 13,1 C 14,6 C
19.07.2012 03:46 14,6 C 91 % 1006,5 hPa 0,0 l/m 0,0 km/h (0 Bft) W-SW 247 13,1 C 14,6 C
19.07.2012 03:51 14,6 C 91 % 1006,3 hPa 0,0 l/m 0,0 km/h (0 Bft) W-SW 247 13,1 C 14,6 C
19.07.2012 03:56 14,6 C 91 % 1006,3 hPa 0,0 l/m 0,0 km/h (0 Bft) S-SW 202 13,1 C 14,6 C
19.07.2012 04:01 14,6 C 91 % 1006,2 hPa 0,0 l/m 1,4 km/h (1 Bft) S-SW 202 13,1 C 14,6 C
19.07.2012 04:06 14,6 C 91 % 1006,2 hPa 0,0 l/m 2,5 km/h (1 Bft) S-SW 202 13,1 C 14,6 C
19.07.2012 04:11 14,7 C 91 % 1006,1 hPa 0,0 l/m 2,2 km/h (1 Bft) S-SW 202 13,2 C 14,7 C
19.07.2012 04:16 14,8 C 91 % 1006,1 hPa 0,0 l/m 6,1 km/h (2 Bft) W-SW 247 13,3 C 14,8 C
19.07.2012 04:21 14,8 C 91 % 1006,1 hPa 0,0 l/m 4,0 km/h (1 Bft) W-SW 247 13,3 C 14,8 C
19.07.2012 04:26 14,9 C 91 % 1006,0 hPa 0,5 l/m 10,8 km/h (2 Bft) W-SW 247 13,4 C 14,9 C
19.07.2012 04:31 14,9 C 90 % 1005,9 hPa 0,0 l/m 9,4 km/h (2 Bft) W-SW 247 13,3 C 14,9 C
19.07.2012 04:36 14,8 C 90 % 1005,8 hPa 0,0 l/m 22,0 km/h (4 Bft) W 270 13,2 C 14,8 C
19.07.2012 04:41 14,8 C 89 % 1005,9 hPa 0,0 l/m 20,9 km/h (4 Bft) W 270 13,0 C 14,8 C
19.07.2012 04:46 14,8 C 89 % 1005,7 hPa 0,0 l/m 6,5 km/h (2 Bft) SW 225 13,0 C 14,8 C
19.07.2012 04:51 14,7 C 89 % 1005,8 hPa 0,0 l/m 10,4 km/h (2 Bft) SW 225 12,9 C 14,7 C
19.07.2012 04:56 14,6 C 89 % 1005,7 hPa 0,0 l/m 6,1 km/h (2 Bft) SW 225 12,8 C 14,6 C
19.07.2012 05:01 14,6 C 89 % 1005,6 hPa 0,0 l/m 3,6 km/h (1 Bft) W-SW 247 12,8 C 14,6 C
19.07.2012 05:06 14,6 C 89 % 1005,6 hPa 0,0 l/m 9,0 km/h (2 Bft) SW 225 12,8 C 14,6 C
19.07.2012 05:11 14,6 C 89 % 1005,6 hPa 0,0 l/m 10,1 km/h (2 Bft) W 270 12,8 C 14,6 C
19.07.2012 05:16 14,5 C 89 % 1005,7 hPa 0,0 l/m 1,4 km/h (1 Bft) W-SW 247 12,7 C 14,5 C
19.07.2012 05:21 14,5 C 89 % 1005,4 hPa 0,0 l/m 4,0 km/h (1 Bft) W 270 12,7 C 14,5 C
19.07.2012 05:26 14,5 C 89 % 1005,5 hPa 0,0 l/m 6,1 km/h (2 Bft) W-SW 247 12,7 C 14,5 C
19.07.2012 05:31 14,6 C 89 % 1005,5 hPa 0,0 l/m 4,0 km/h (1 Bft) W 270 12,8 C 14,6 C
19.07.2012 05:36 14,6 C 90 % 1005,5 hPa 0,0 l/m 4,3 km/h (1 Bft) W-SW 247 13,0 C 14,6 C
19.07.2012 05:41 14,6 C 90 % 1005,4 hPa 0,0 l/m 2,2 km/h (1 Bft) W-SW 247 13,0 C 14,6 C
19.07.2012 05:46 14,7 C 90 % 1005,2 hPa 0,0 l/m 4,0 km/h (1 Bft) W-SW 247 13,1 C 14,7 C
19.07.2012 05:51 14,6 C 90 % 1005,2 hPa 0,0 l/m 1,1 km/h (1 Bft) W 270 13,0 C 14,6 C
19.07.2012 05:56 14,7 C 90 % 1005,2 hPa 0,0 l/m 1,8 km/h (1 Bft) W-NW 292 13,1 C 14,7 C
19.07.2012 06:01 14,6 C 90 % 1005,1 hPa 0,0 l/m 0,0 km/h (0 Bft) W-NW 292 13,0 C 14,6 C
19.07.2012 06:06 14,6 C 90 % 1005,1 hPa 0,0 l/m 0,0 km/h (0 Bft) W-NW 292 13,0 C 14,6 C
19.07.2012 06:11 14,7 C 90 % 1005,1 hPa 0,0 l/m 0,0 km/h (0 Bft) W-NW 292 13,1 C 14,7 C
19.07.2012 06:16 14,8 C 90 % 1005,1 hPa 0,0 l/m 0,0 km/h (0 Bft) W-NW 292 13,2 C 14,8 C
19.07.2012 06:21 14,9 C 90 % 1005,1 hPa 0,0 l/m 2,2 km/h (1 Bft) W-NW 292 13,3 C 14,9 C
19.07.2012 06:26 14,9 C 90 % 1005,1 hPa 0,0 l/m 2,5 km/h (1 Bft) W-SW 247 13,3 C 14,9 C
19.07.2012 06:31 14,9 C 90 % 1005,1 hPa 0,0 l/m 2,5 km/h (1 Bft) SW 225 13,3 C 14,9 C
19.07.2012 06:36 14,9 C 90 % 1005,2 hPa 0,0 l/m 4,0 km/h (1 Bft) SW 225 13,3 C 14,9 C
19.07.2012 06:41 15,1 C 90 % 1005,2 hPa 0,0 l/m 5,0 km/h (1 Bft) W-SW 247 13,5 C 15,1 C
19.07.2012 06:46 15,2 C 90 % 1005,2 hPa 0,0 l/m 14,0 km/h (3 Bft) W-SW 247 13,6 C 15,2 C
19.07.2012 06:51 15,3 C 90 % 1005,0 hPa 0,0 l/m 6,8 km/h (2 Bft) W-SW 247 13,7 C 15,3 C
19.07.2012 06:56 15,3 C 89 % 1004,9 hPa 0,0 l/m 10,4 km/h (2 Bft) W 270 13,5 C 15,3 C
19.07.2012 07:01 15,4 C 89 % 1004,7 hPa 0,0 l/m 15,8 km/h (3 Bft) W 270 13,6 C 15,4 C
19.07.2012 07:06 15,4 C 88 % 1004,6 hPa 0,0 l/m 4,7 km/h (1 Bft) W 270 13,4 C 15,4 C
19.07.2012 07:11 15,5 C 88 % 1004,7 hPa 0,0 l/m 18,0 km/h (3 Bft) W 270 13,5 C 15,5 C
19.07.2012 07:16 15,5 C 88 % 1004,6 hPa 0,0 l/m 4,3 km/h (1 Bft) SW 225 13,5 C 15,5 C
19.07.2012 07:21 15,6 C 88 % 1004,6 hPa 0,0 l/m 14,0 km/h (3 Bft) W-SW 247 13,6 C 15,6 C
19.07.2012 07:26 15,6 C 88 % 1004,7 hPa 0,0 l/m 16,2 km/h (3 Bft) W-SW 247 13,6 C 15,6 C
19.07.2012 07:31 15,6 C 88 % 1004,7 hPa 0,0 l/m 8,3 km/h (2 Bft) W-SW 247 13,6 C 15,6 C
19.07.2012 07:36 15,6 C 88 % 1004,9 hPa 0,0 l/m 6,5 km/h (2 Bft) W-SW 247 13,6 C 15,6 C
19.07.2012 07:41 15,6 C 88 % 1004,7 hPa 0,0 l/m 5,0 km/h (1 Bft) W-SW 247 13,6 C 15,6 C
19.07.2012 07:46 15,6 C 88 % 1004,7 hPa 0,0 l/m 4,7 km/h (1 Bft) W-SW 247 13,6 C 15,6 C
19.07.2012 07:51 15,6 C 88 % 1004,7 hPa 0,0 l/m 6,8 km/h (2 Bft) W-SW 247 13,6 C 15,6 C
19.07.2012 07:56 15,5 C 88 % 1004,8 hPa 0,0 l/m 8,3 km/h (2 Bft) W-SW 247 13,5 C 15,5 C
19.07.2012 08:01 15,5 C 89 % 1004,6 hPa 0,0 l/m 2,2 km/h (1 Bft) S-SW 202 13,7 C 15,5 C
19.07.2012 08:06 15,4 C 89 % 1004,6 hPa 0,5 l/m 5,8 km/h (2 Bft) SW 225 13,6 C 15,4 C
19.07.2012 08:11 15,3 C 89 % 1004,5 hPa 0,5 l/m 2,5 km/h (1 Bft) S-SW 202 13,5 C 15,3 C
19.07.2012 08:16 15,4 C 90 % 1004,4 hPa 0,0 l/m 3,2 km/h (1 Bft) S-SW 202 13,8 C 15,4 C
19.07.2012 08:21 15,4 C 90 % 1004,5 hPa 0,0 l/m 6,5 km/h (2 Bft) SW 225 13,8 C 15,4 C
19.07.2012 08:26 15,5 C 90 % 1004,4 hPa 0,0 l/m 5,8 km/h (2 Bft) S 180 13,9 C 15,5 C
19.07.2012 08:31 15,5 C 90 % 1004,2 hPa 0,0 l/m 5,4 km/h (1 Bft) SW 225 13,9 C 15,5 C
19.07.2012 08:36 15,7 C 90 % 1004,0 hPa 0,0 l/m 5,0 km/h (1 Bft) SW 225 14,1 C 15,7 C
19.07.2012 08:41 15,8 C 90 % 1004,1 hPa 0,0 l/m 4,3 km/h (1 Bft) SW 225 14,2 C 15,8 C
19.07.2012 08:46 15,8 C 89 % 1003,9 hPa 0,0 l/m 2,5 km/h (1 Bft) SW 225 14,0 C 15,8 C
19.07.2012 08:51 15,9 C 89 % 1004,0 hPa 0,0 l/m 1,4 km/h (1 Bft) S-SW 202 14,1 C 15,9 C
19.07.2012 08:56 15,9 C 89 % 1004,2 hPa 0,0 l/m 7,9 km/h (2 Bft) SW 225 14,1 C 15,9 C
19.07.2012 09:01 15,9 C 88 % 1004,1 hPa 0,0 l/m 11,2 km/h (2 Bft) SW 225 13,9 C 15,9 C
19.07.2012 09:06 15,9 C 88 % 1004,1 hPa 0,0 l/m 5,0 km/h (1 Bft) S-SW 202 13,9 C 15,9 C
19.07.2012 09:11 15,9 C 88 % 1004,1 hPa 0,0 l/m 6,1 km/h (2 Bft) S-SW 202 13,9 C 15,9 C
19.07.2012 09:16 15,9 C 89 % 1004,1 hPa 0,5 l/m 5,8 km/h (2 Bft) S-SW 202 14,1 C 15,9 C
19.07.2012 09:21 15,9 C 89 % 1004,0 hPa 0,0 l/m 6,5 km/h (2 Bft) W 270 14,1 C 15,9 C
19.07.2012 09:26 15,9 C 89 % 1003,9 hPa 0,5 l/m 15,1 km/h (3 Bft) W-SW 247 14,1 C 15,9 C
19.07.2012 09:31 16,1 C 89 % 1004,0 hPa 0,0 l/m 8,3 km/h (2 Bft) S-SW 202 14,3 C 16,1 C
19.07.2012 09:36 16,1 C 89 % 1004,0 hPa 0,0 l/m 13,3 km/h (3 Bft) W-SW 247 14,3 C 16,1 C
19.07.2012 09:41 16,1 C 89 % 1004,0 hPa 0,0 l/m 8,3 km/h (2 Bft) SW 225 14,3 C 16,1 C
19.07.2012 09:46 16,1 C 89 % 1004,0 hPa 0,0 l/m 13,7 km/h (3 Bft) W-SW 247 14,3 C 16,1 C
19.07.2012 09:51 15,9 C 89 % 1003,9 hPa 0,5 l/m 6,1 km/h (2 Bft) W-SW 247 14,1 C 15,9 C
19.07.2012 09:56 15,9 C 89 % 1004,0 hPa 0,0 l/m 5,0 km/h (1 Bft) W-SW 247 14,1 C 15,9 C
19.07.2012 10:01 15,9 C 90 % 1003,9 hPa 0,0 l/m 3,6 km/h (1 Bft) W-SW 247 14,3 C 15,9 C
19.07.2012 10:06 15,9 C 90 % 1003,9 hPa 0,5 l/m 3,2 km/h (1 Bft) W-SW 247 14,3 C 15,9 C
19.07.2012 10:11 15,9 C 90 % 1004,1 hPa 0,0 l/m 2,5 km/h (1 Bft) W 270 14,3 C 15,9 C
19.07.2012 10:16 15,9 C 90 % 1003,6 hPa 0,5 l/m 6,1 km/h (2 Bft) S 180 14,3 C 15,9 C
19.07.2012 10:21 16,0 C 90 % 1003,9 hPa 0,5 l/m 4,7 km/h (1 Bft) S-SW 202 14,4 C 16,0 C
19.07.2012 10:26 15,9 C 90 % 1003,8 hPa 0,0 l/m 7,6 km/h (2 Bft) W-SW 247 14,3 C 15,9 C
19.07.2012 10:31 16,0 C 90 % 1003,8 hPa 0,0 l/m 6,1 km/h (2 Bft) W-SW 247 14,4 C 16,0 C
19.07.2012 10:36 16,2 C 91 % 1003,9 hPa 0,0 l/m 12,6 km/h (3 Bft) W-SW 247 14,7 C 16,2 C
19.07.2012 10:41 16,8 C 90 % 1004,0 hPa 0,0 l/m 17,3 km/h (3 Bft) W 270 15,1 C 16,8 C
19.07.2012 10:46 16,9 C 90 % 1004,1 hPa 0,0 l/m 14,4 km/h (3 Bft) SW 225 15,2 C 16,9 C
19.07.2012 10:51 16,6 C 89 % 1004,0 hPa 0,0 l/m 29,5 km/h (5 Bft) W-SW 247 14,8 C 16,6 C
19.07.2012 10:56 16,3 C 89 % 1004,0 hPa 0,5 l/m 4,0 km/h (1 Bft) W 270 14,5 C 16,3 C
19.07.2012 11:01 16,4 C 89 % 1004,1 hPa 0,0 l/m 18,4 km/h (3 Bft) W-SW 247 14,6 C 16,4 C
19.07.2012 11:06 16,4 C 90 % 1004,1 hPa 0,0 l/m 10,1 km/h (2 Bft) W-SW 247 14,8 C 16,4 C
19.07.2012 11:11 16,5 C 89 % 1004,1 hPa 0,5 l/m 24,5 km/h (4 Bft) W-SW 247 14,7 C 16,5 C
19.07.2012 11:16 16,4 C 89 % 1004,2 hPa 0,0 l/m 22,0 km/h (4 Bft) W 270 14,6 C 16,4 C
19.07.2012 11:21 16,1 C 89 % 1004,2 hPa 0,0 l/m 9,7 km/h (2 Bft) W 270 14,3 C 16,1 C
19.07.2012 11:26 15,9 C 90 % 1004,0 hPa 0,0 l/m 8,6 km/h (2 Bft) SW 225 14,3 C 15,9 C
19.07.2012 11:31 15,9 C 90 % 1003,7 hPa 0,5 l/m 4,0 km/h (1 Bft) W-SW 247 14,3 C 15,9 C
19.07.2012 11:36 15,9 C 90 % 1003,7 hPa 0,0 l/m 7,2 km/h (2 Bft) W 270 14,3 C 15,9 C
19.07.2012 11:41 16,2 C 90 % 1003,9 hPa 0,0 l/m 11,9 km/h (2 Bft) W-SW 247 14,6 C 16,2 C
19.07.2012 11:46 16,5 C 89 % 1003,7 hPa 0,0 l/m 12,6 km/h (3 Bft) SW 225 14,7 C 16,5 C
19.07.2012 11:51 17,1 C 89 % 1003,7 hPa 0,0 l/m 17,6 km/h (3 Bft) W 270 15,3 C 17,1 C
19.07.2012 11:56 17,9 C 87 % 1003,6 hPa 0,0 l/m 18,4 km/h (3 Bft) W 270 15,7 C 17,9 C
19.07.2012 12:01 18,7 C 86 % 1003,7 hPa 0,0 l/m 7,9 km/h (2 Bft) W-SW 247 16,3 C 18,7 C
19.07.2012 12:06 18,9 C 84 % 1003,5 hPa 0,0 l/m 14,4 km/h (3 Bft) W-SW 247 16,1 C 18,9 C
19.07.2012 12:11 18,8 C 83 % 1003,5 hPa 0,0 l/m 23,4 km/h (4 Bft) SW 225 15,8 C 18,8 C
19.07.2012 12:16 19,1 C 81 % 1003,6 hPa 0,0 l/m 18,0 km/h (3 Bft) W-SW 247 15,8 C 19,1 C
19.07.2012 12:21 19,4 C 80 % 1003,6 hPa 0,0 l/m 26,3 km/h (4 Bft) W-SW 247 15,9 C 19,4 C
19.07.2012 12:26 19,6 C 78 % 1003,8 hPa 0,0 l/m 27,0 km/h (4 Bft) W 270 15,7 C 19,6 C
19.07.2012 12:31 19,2 C 76 % 1003,9 hPa 0,0 l/m 21,2 km/h (4 Bft) W 270 14,9 C 19,2 C
19.07.2012 12:36 18,7 C 77 % 1004,2 hPa 0,0 l/m 16,6 km/h (3 Bft) W 270 14,6 C 18,7 C
19.07.2012 12:41 19,0 C 77 % 1004,1 hPa 0,0 l/m 12,2 km/h (2 Bft) W-NW 292 14,9 C 19,0 C
19.07.2012 12:46 19,5 C 75 % 1004,1 hPa 0,0 l/m 32,8 km/h (5 Bft) W-SW 247 14,9 C 19,5 C
19.07.2012 12:51 19,4 C 74 % 1004,2 hPa 0,0 l/m 22,7 km/h (4 Bft) SW 225 14,6 C 19,4 C
19.07.2012 12:56 19,3 C 74 % 1004,2 hPa 0,0 l/m 7,9 km/h (2 Bft) W 270 14,5 C 19,3 C
19.07.2012 13:01 19,6 C 72 % 1004,1 hPa 0,0 l/m 22,7 km/h (4 Bft) W-SW 247 14,4 C 19,6 C
19.07.2012 13:06 19,8 C 73 % 1004,1 hPa 0,0 l/m 18,0 km/h (3 Bft) W-NW 292 14,8 C 19,8 C
19.07.2012 13:11 19,8 C 72 % 1004,1 hPa 0,0 l/m 19,1 km/h (3 Bft) SW 225 14,6 C 19,8 C
19.07.2012 13:16 19,5 C 71 % 1004,0 hPa 0,0 l/m 18,4 km/h (3 Bft) S-SW 202 14,1 C 19,5 C
19.07.2012 13:21 19,2 C 72 % 1003,8 hPa 0,0 l/m 7,6 km/h (2 Bft) N-NW 337 14,0 C 19,2 C
19.07.2012 13:26 19,2 C 74 % 1003,9 hPa 0,0 l/m 5,4 km/h (1 Bft) W-NW 292 14,4 C 19,2 C
19.07.2012 13:31 19,1 C 74 % 1003,9 hPa 0,0 l/m 10,4 km/h (2 Bft) SW 225 14,4 C 19,1 C
19.07.2012 13:36 19,2 C 74 % 1003,9 hPa 0,0 l/m 21,6 km/h (4 Bft) W-SW 247 14,4 C 19,2 C
19.07.2012 13:41 19,3 C 72 % 1004,0 hPa 0,0 l/m 25,9 km/h (4 Bft) W-SW 247 14,1 C 19,3 C
19.07.2012 13:46 20,2 C 70 % 1004,0 hPa 0,0 l/m 23,0 km/h (4 Bft) W-SW 247 14,5 C 20,2 C
19.07.2012 13:51 20,6 C 69 % 1004,1 hPa 0,0 l/m 36,0 km/h (5 Bft) W 270 14,7 C 20,6 C
19.07.2012 13:56 20,3 C 66 % 1004,2 hPa 0,0 l/m 14,8 km/h (3 Bft) W 270 13,7 C 20,3 C
19.07.2012 14:01 20,5 C 66 % 1004,3 hPa 0,0 l/m 14,8 km/h (3 Bft) W-SW 247 13,9 C 20,5 C
19.07.2012 14:06 21,2 C 66 % 1004,4 hPa 0,0 l/m 19,8 km/h (3 Bft) W-SW 247 14,6 C 21,2 C
19.07.2012 14:11 21,2 C 63 % 1004,4 hPa 0,0 l/m 10,8 km/h (2 Bft) W 270 13,9 C 21,2 C
19.07.2012 14:16 21,1 C 62 % 1004,2 hPa 0,0 l/m 20,9 km/h (4 Bft) W-SW 247 13,5 C 21,1 C
19.07.2012 14:21 21,0 C 62 % 1004,2 hPa 0,0 l/m 19,1 km/h (3 Bft) NW 315 13,4 C 21,0 C
19.07.2012 14:26 19,4 C 62 % 1005,0 hPa 0,0 l/m 9,7 km/h (2 Bft) N 360 11,9 C 19,4 C
19.07.2012 14:31 16,4 C 72 % 1005,0 hPa 1,6 l/m 11,9 km/h (2 Bft) W 270 11,3 C 16,4 C
19.07.2012 14:36 14,9 C 76 % 1005,0 hPa 0,5 l/m 10,1 km/h (2 Bft) W-SW 247 10,7 C 14,9 C
19.07.2012 14:41 14,6 C 79 % 1005,1 hPa 0,0 l/m 3,2 km/h (1 Bft) W 270 11,0 C 14,6 C
19.07.2012 14:46 14,9 C 81 % 1004,8 hPa 0,0 l/m 4,0 km/h (1 Bft) W-NW 292 11,7 C 14,9 C
19.07.2012 14:51 16,0 C 82 % 1004,7 hPa 0,0 l/m 9,4 km/h (2 Bft) W 270 12,9 C 16,0 C
19.07.2012 14:56 16,8 C 79 % 1004,8 hPa 0,0 l/m 5,8 km/h (2 Bft) W-NW 292 13,1 C 16,8 C
19.07.2012 15:01 17,5 C 78 % 1004,7 hPa 0,0 l/m 8,6 km/h (2 Bft) W 270 13,6 C 17,5 C
19.07.2012 15:06 18,3 C 77 % 1004,7 hPa 0,0 l/m 6,1 km/h (2 Bft) NW 315 14,2 C 18,3 C
19.07.2012 15:11 18,8 C 74 % 1004,9 hPa 0,0 l/m 2,5 km/h (1 Bft) W 270 14,1 C 18,8 C
19.07.2012 15:16 18,6 C 73 % 1004,8 hPa 0,0 l/m 11,9 km/h (2 Bft) W-SW 247 13,7 C 18,6 C
19.07.2012 15:21 18,8 C 74 % 1004,8 hPa 0,0 l/m 8,3 km/h (2 Bft) W-NW 292 14,1 C 18,8 C
19.07.2012 15:26 19,3 C 73 % 1004,7 hPa 0,0 l/m 4,3 km/h (1 Bft) W 270 14,3 C 19,3 C
19.07.2012 15:31 19,6 C 72 % 1004,6 hPa 0,0 l/m 4,3 km/h (1 Bft) W-SW 247 14,4 C 19,6 C
19.07.2012 15:36 19,2 C 72 % 1004,5 hPa 0,0 l/m 6,1 km/h (2 Bft) W-NW 292 14,0 C 19,2 C
19.07.2012 15:41 19,1 C 72 % 1004,3 hPa 0,0 l/m 7,6 km/h (2 Bft) W 270 13,9 C 19,1 C
19.07.2012 15:46 19,5 C 72 % 1004,3 hPa 0,0 l/m 2,9 km/h (1 Bft) W-SW 247 14,3 C 19,5 C
19.07.2012 15:51 19,9 C 72 % 1004,3 hPa 0,0 l/m 8,6 km/h (2 Bft) W 270 14,7 C 19,9 C
19.07.2012 15:56 19,9 C 70 % 1004,5 hPa 0,0 l/m 6,5 km/h (2 Bft) W-SW 247 14,3 C 19,9 C
19.07.2012 16:01 20,6 C 69 % 1004,4 hPa 0,0 l/m 12,6 km/h (3 Bft) W-SW 247 14,7 C 20,6 C
19.07.2012 16:06 21,2 C 65 % 1004,4 hPa 0,0 l/m 12,6 km/h (3 Bft) W-SW 247 14,4 C 21,2 C
19.07.2012 16:11 20,6 C 65 % 1004,5 hPa 0,0 l/m 30,6 km/h (5 Bft) W-SW 247 13,8 C 20,6 C
19.07.2012 16:16 20,1 C 64 % 1004,5 hPa 0,0 l/m 13,3 km/h (3 Bft) W 270 13,1 C 20,1 C
19.07.2012 16:21 20,2 C 64 % 1004,6 hPa 0,0 l/m 27,0 km/h (4 Bft) W-SW 247 13,2 C 20,2 C
19.07.2012 16:26 19,5 C 64 % 1004,6 hPa 0,0 l/m 21,6 km/h (4 Bft) W 270 12,5 C 19,5 C
19.07.2012 16:31 18,9 C 66 % 1004,6 hPa 0,0 l/m 24,8 km/h (4 Bft) W-SW 247 12,4 C 18,9 C
19.07.2012 16:36 18,3 C 71 % 1005,5 hPa 1,6 l/m 11,9 km/h (2 Bft) W 270 12,9 C 18,3 C
19.07.2012 16:41 16,0 C 74 % 1005,4 hPa 1,0 l/m 16,9 km/h (3 Bft) W-NW 292 11,4 C 16,0 C
19.07.2012 16:46 15,3 C 80 % 1005,2 hPa 0,5 l/m 20,5 km/h (4 Bft) W-SW 247 11,9 C 15,3 C
19.07.2012 16:51 15,0 C 82 % 1005,2 hPa 0,5 l/m 5,8 km/h (2 Bft) W 270 12,0 C 15,0 C
19.07.2012 16:56 15,3 C 83 % 1005,2 hPa 0,0 l/m 14,4 km/h (3 Bft) W-SW 247 12,4 C 15,3 C
19.07.2012 17:01 15,6 C 83 % 1005,1 hPa 0,0 l/m 20,9 km/h (4 Bft) SW 225 12,7 C 15,6 C
19.07.2012 17:06 15,8 C 84 % 1005,1 hPa 0,0 l/m 15,8 km/h (3 Bft) W-SW 247 13,1 C 15,8 C
19.07.2012 17:11 15,8 C 84 % 1005,5 hPa 0,0 l/m 14,0 km/h (3 Bft) S-SW 202 13,1 C 15,8 C
19.07.2012 17:16 15,6 C 84 % 1005,4 hPa 0,0 l/m 19,1 km/h (3 Bft) W-SW 247 12,9 C 15,6 C
19.07.2012 17:21 15,6 C 83 % 1005,3 hPa 0,0 l/m 28,4 km/h (4 Bft) W 270 12,7 C 15,6 C
19.07.2012 17:26 15,6 C 82 % 1005,2 hPa 0,0 l/m 23,0 km/h (4 Bft) S-SW 202 12,5 C 15,6 C
19.07.2012 17:31 15,6 C 82 % 1005,2 hPa 0,0 l/m 10,8 km/h (2 Bft) SW 225 12,5 C 15,6 C
19.07.2012 17:36 15,8 C 82 % 1005,3 hPa 0,0 l/m 22,7 km/h (4 Bft) W 270 12,7 C 15,8 C
19.07.2012 17:41 15,8 C 82 % 1005,1 hPa 0,0 l/m 23,0 km/h (4 Bft) W-SW 247 12,7 C 15,8 C
19.07.2012 17:46 16,1 C 82 % 1005,1 hPa 0,0 l/m 13,3 km/h (3 Bft) W 270 13,0 C 16,1 C
19.07.2012 17:51 16,3 C 82 % 1005,2 hPa 0,0 l/m 15,5 km/h (3 Bft) W 270 13,2 C 16,3 C
19.07.2012 17:56 16,7 C 81 % 1005,1 hPa 0,0 l/m 16,6 km/h (3 Bft) W-SW 247 13,4 C 16,7 C
19.07.2012 18:01 17,0 C 80 % 1005,2 hPa 0,0 l/m 28,8 km/h (4 Bft) W-SW 247 13,5 C 17,0 C
19.07.2012 18:06 17,6 C 78 % 1005,2 hPa 0,0 l/m 12,6 km/h (3 Bft) W-SW 247 13,7 C 17,6 C
19.07.2012 18:11 17,9 C 75 % 1005,2 hPa 0,0 l/m 18,7 km/h (3 Bft) W-SW 247 13,4 C 17,9 C
19.07.2012 18:16 17,6 C 76 % 1005,5 hPa 0,0 l/m 7,6 km/h (2 Bft) W-SW 247 13,3 C 17,6 C
19.07.2012 18:21 17,2 C 77 % 1005,5 hPa 0,0 l/m 14,0 km/h (3 Bft) SW 225 13,1 C 17,2 C
19.07.2012 18:26 16,8 C 77 % 1005,6 hPa 0,0 l/m 32,8 km/h (5 Bft) W-SW 247 12,7 C 16,8 C
19.07.2012 18:31 16,5 C 78 % 1005,8 hPa 0,0 l/m 13,3 km/h (3 Bft) W 270 12,6 C 16,5 C
19.07.2012 18:36 16,3 C 79 % 1005,8 hPa 0,0 l/m 6,8 km/h (2 Bft) W-NW 292 12,6 C 16,3 C
19.07.2012 18:41 15,9 C 81 % 1005,8 hPa 0,0 l/m 4,0 km/h (1 Bft) SW 225 12,6 C 15,9 C
19.07.2012 18:46 15,6 C 82 % 1005,9 hPa 0,0 l/m 22,0 km/h (4 Bft) W-SW 247 12,5 C 15,6 C
19.07.2012 18:51 15,4 C 83 % 1006,0 hPa 0,0 l/m 14,8 km/h (3 Bft) W 270 12,5 C 15,4 C
19.07.2012 18:56 15,3 C 84 % 1006,0 hPa 0,0 l/m 20,9 km/h (4 Bft) W 270 12,6 C 15,3 C
19.07.2012 19:01 15,2 C 84 % 1006,2 hPa 0,5 l/m 9,4 km/h (2 Bft) N-NW 337 12,5 C 15,2 C
19.07.2012 19:06 15,0 C 83 % 1005,9 hPa 0,0 l/m 18,4 km/h (3 Bft) W-SW 247 12,1 C 15,0 C
19.07.2012 19:11 15,2 C 84 % 1006,0 hPa 0,0 l/m 24,8 km/h (4 Bft) W-SW 247 12,5 C 15,2 C
19.07.2012 19:16 15,2 C 84 % 1006,0 hPa 0,0 l/m 5,0 km/h (1 Bft) W-SW 247 12,5 C 15,2 C
19.07.2012 19:21 15,3 C 85 % 1006,1 hPa 0,0 l/m 22,7 km/h (4 Bft) W 270 12,8 C 15,3 C
19.07.2012 19:26 15,3 C 85 % 1006,3 hPa 0,0 l/m 13,3 km/h (3 Bft) W 270 12,8 C 15,3 C
19.07.2012 19:31 15,5 C 85 % 1006,0 hPa 0,0 l/m 16,6 km/h (3 Bft) W-SW 247 13,0 C 15,5 C
19.07.2012 19:36 16,0 C 85 % 1006,0 hPa 0,0 l/m 9,7 km/h (2 Bft) W-SW 247 13,5 C 16,0 C
19.07.2012 19:41 16,3 C 84 % 1006,0 hPa 0,0 l/m 23,0 km/h (4 Bft) W-SW 247 13,6 C 16,3 C
19.07.2012 19:46 16,6 C 83 % 1006,1 hPa 0,0 l/m 18,0 km/h (3 Bft) W 270 13,7 C 16,6 C
19.07.2012 19:51 17,2 C 80 % 1006,1 hPa 0,0 l/m 13,7 km/h (3 Bft) W-SW 247 13,7 C 17,2 C
19.07.2012 19:56 17,5 C 78 % 1006,2 hPa 0,0 l/m 15,5 km/h (3 Bft) W 270 13,6 C 17,5 C
19.07.2012 20:01 16,9 C 78 % 1006,2 hPa 0,0 l/m 16,9 km/h (3 Bft) W-SW 247 13,0 C 16,9 C
19.07.2012 20:06 16,4 C 79 % 1006,3 hPa 0,0 l/m 11,2 km/h (2 Bft) W 270 12,7 C 16,4 C
19.07.2012 20:11 15,7 C 81 % 1006,3 hPa 0,0 l/m 13,0 km/h (3 Bft) W-SW 247 12,4 C 15,7 C
19.07.2012 20:16 15,5 C 82 % 1006,4 hPa 0,0 l/m 16,9 km/h (3 Bft) SW 225 12,4 C 15,5 C
19.07.2012 20:21 15,3 C 82 % 1006,4 hPa 0,0 l/m 25,2 km/h (4 Bft) W-SW 247 12,2 C 15,3 C
19.07.2012 20:26 14,9 C 83 % 1006,3 hPa 0,0 l/m 16,2 km/h (3 Bft) W 270 12,0 C 14,9 C
19.07.2012 20:31 14,9 C 84 % 1006,3 hPa 0,0 l/m 21,6 km/h (4 Bft) W-SW 247 12,2 C 14,9 C
19.07.2012 20:36 14,9 C 85 % 1006,5 hPa 0,0 l/m 19,1 km/h (3 Bft) W-SW 247 12,4 C 14,9 C
19.07.2012 20:41 14,8 C 85 % 1006,4 hPa 0,0 l/m 19,1 km/h (3 Bft) W 270 12,3 C 14,8 C
19.07.2012 20:46 14,6 C 85 % 1006,6 hPa 0,0 l/m 8,3 km/h (2 Bft) SW 225 12,1 C 14,6 C
19.07.2012 20:51 14,6 C 85 % 1006,5 hPa 0,0 l/m 13,3 km/h (3 Bft) W-SW 247 12,1 C 14,6 C
19.07.2012 20:56 14,5 C 86 % 1006,6 hPa 0,0 l/m 12,2 km/h (2 Bft) SW 225 12,2 C 14,5 C
19.07.2012 21:01 14,4 C 86 % 1006,5 hPa 0,0 l/m 13,7 km/h (3 Bft) W-SW 247 12,1 C 14,4 C
19.07.2012 21:06 14,4 C 86 % 1006,4 hPa 0,0 l/m 13,7 km/h (3 Bft) W-SW 247 12,1 C 14,4 C
19.07.2012 21:11 14,4 C 86 % 1006,5 hPa 0,0 l/m 13,3 km/h (3 Bft) W 270 12,1 C 14,4 C
19.07.2012 21:16 14,4 C 86 % 1006,7 hPa 0,0 l/m 17,3 km/h (3 Bft) W 270 12,1 C 14,4 C
19.07.2012 21:21 14,4 C 86 % 1006,7 hPa 0,0 l/m 19,4 km/h (3 Bft) W 270 12,1 C 14,4 C
19.07.2012 21:26 14,4 C 86 % 1006,7 hPa 0,0 l/m 16,6 km/h (3 Bft) W-SW 247 12,1 C 14,4 C
19.07.2012 21:31 14,4 C 86 % 1006,7 hPa 0,0 l/m 16,9 km/h (3 Bft) W 270 12,1 C 14,4 C
19.07.2012 21:36 14,4 C 85 % 1006,9 hPa 0,0 l/m 23,0 km/h (4 Bft) W-SW 247 11,9 C 14,4 C
19.07.2012 21:41 14,3 C 85 % 1006,9 hPa 0,0 l/m 13,3 km/h (3 Bft) W-SW 247 11,8 C 14,3 C
19.07.2012 21:46 14,2 C 85 % 1007,0 hPa 0,0 l/m 26,6 km/h (4 Bft) SW 225 11,7 C 14,2 C
19.07.2012 21:51 14,2 C 85 % 1007,0 hPa 0,0 l/m 22,0 km/h (4 Bft) W 270 11,7 C 14,2 C
19.07.2012 21:56 14,2 C 85 % 1007,1 hPa 0,0 l/m 18,0 km/h (3 Bft) W-SW 247 11,7 C 14,2 C
19.07.2012 22:01 14,2 C 85 % 1007,2 hPa 0,0 l/m 15,5 km/h (3 Bft) NW 315 11,7 C 14,2 C
19.07.2012 22:06 14,2 C 85 % 1007,2 hPa 0,0 l/m 17,6 km/h (3 Bft) SW 225 11,7 C 14,2 C
19.07.2012 22:11 14,1 C 84 % 1007,1 hPa 0,0 l/m 20,5 km/h (4 Bft) W-SW 247 11,4 C 14,1 C
19.07.2012 22:16 14,1 C 85 % 1007,2 hPa 0,0 l/m 12,2 km/h (2 Bft) W 270 11,6 C 14,1 C
19.07.2012 22:21 14,1 C 85 % 1007,1 hPa 0,0 l/m 25,9 km/h (4 Bft) W 270 11,6 C 14,1 C
19.07.2012 22:26 13,9 C 85 % 1007,2 hPa 0,0 l/m 17,6 km/h (3 Bft) W-SW 247 11,4 C 13,9 C
19.07.2012 22:31 13,9 C 85 % 1007,2 hPa 0,0 l/m 15,1 km/h (3 Bft) W-SW 247 11,4 C 13,9 C
19.07.2012 22:36 13,9 C 85 % 1007,2 hPa 0,0 l/m 23,0 km/h (4 Bft) W-SW 247 11,4 C 13,9 C
19.07.2012 22:41 13,9 C 85 % 1007,2 hPa 0,0 l/m 17,3 km/h (3 Bft) W-SW 247 11,4 C 13,9 C
19.07.2012 22:46 13,9 C 85 % 1007,4 hPa 0,0 l/m 11,2 km/h (2 Bft) W 270 11,4 C 13,9 C
19.07.2012 22:51 13,8 C 84 % 1007,5 hPa 0,0 l/m 20,9 km/h (4 Bft) W 270 11,1 C 13,8 C
19.07.2012 22:56 13,8 C 84 % 1007,5 hPa 0,0 l/m 20,9 km/h (4 Bft) W 270 11,1 C 13,8 C
19.07.2012 23:01 13,8 C 83 % 1007,4 hPa 0,0 l/m 23,0 km/h (4 Bft) W-SW 247 11,0 C 13,8 C
19.07.2012 23:06 13,8 C 83 % 1007,4 hPa 0,0 l/m 18,4 km/h (3 Bft) W 270 11,0 C 13,8 C
19.07.2012 23:11 13,8 C 82 % 1007,5 hPa 0,0 l/m 15,5 km/h (3 Bft) SW 225 10,8 C 13,8 C
19.07.2012 23:16 13,8 C 82 % 1007,6 hPa 0,0 l/m 14,8 km/h (3 Bft) S-SW 202 10,8 C 13,8 C
19.07.2012 23:21 13,7 C 82 % 1007,6 hPa 0,0 l/m 28,8 km/h (4 Bft) W-SW 247 10,7 C 13,7 C
19.07.2012 23:26 13,6 C 83 % 1007,7 hPa 0,0 l/m 26,6 km/h (4 Bft) W-SW 247 10,8 C 13,6 C
19.07.2012 23:31 13,6 C 83 % 1007,7 hPa 0,0 l/m 8,3 km/h (2 Bft) W-SW 247 10,8 C 13,6 C
19.07.2012 23:36 13,6 C 83 % 1007,8 hPa 0,0 l/m 28,1 km/h (4 Bft) W 270 10,8 C 13,6 C
19.07.2012 23:41 13,6 C 83 % 1007,9 hPa 0,0 l/m 22,0 km/h (4 Bft) W 270 10,8 C 13,6 C
19.07.2012 23:46 13,6 C 83 % 1007,9 hPa 0,0 l/m 16,6 km/h (3 Bft) W-SW 247 10,8 C 13,6 C
19.07.2012 23:51 13,6 C 83 % 1007,8 hPa 0,0 l/m 11,9 km/h (2 Bft) SW 225 10,8 C 13,6 C
19.07.2012 23:56 13,5 C 83 % 1007,8 hPa 0,0 l/m 19,1 km/h (3 Bft) W-NW 292 10,7 C 13,5 C
_ Min-Zeit 23:56 14:16 12:06 - 00:56 - - 23:56 23:56
Minimum _ 13,5 C 62 % 1003,5 hPa - 0,0 km/h (0 Bft) - - 10,7 C 13,5 C
_ Max-Zeit 14:06 01:16 23:41 14:31 13:51 - - 12:01 14:06
Maximum _ 21,2 C 91 % 1007,9 hPa 1,6 l/m 36,0 km/h
W (5 Bft)
- - 16,3 C 21,2 C
Durchschnitt _ 16,1 C 84 % 1005,5 hPa #12,4 l/m 11,2 km/h (2 Bft) W-SW - 13,4 C 16,1 C
(c) by David Heller